Tracking 35275 objects as of 8-Sep-2026
HD Live streaming from Space Station
objects crossing your sky now

ECHOSTAR 7

Track ECHOSTAR 7 now!
ECHOSTAR 7 is classified as:


NORAD ID: 27378
Int'l Code: 2002-006A
Launch date: February 21, 2002
Source: United States (US)
Launch site: AIR FORCE EASTERN TEST RANGE (AFETR)

CONUS, Hawaii, Alaska and Puerto Rico; 32 Ku-band transponders
Your satellite tracking list
Your tracking list is empty




NASA's NSSDC Master Catalog

Two Line Element Set (TLE):
1 27378U 02006A   26250.77487900  .00000105  00000-0  00000-0 0  9998
2 27378   4.2206  76.3347 0002210 114.9795 289.7025  0.99839287 51367
Source of the keplerian elements: AFSPC